Time,TemperatureF,DewpointF,PressureIn,WindDirection,WindDirectionDegrees,WindSpeedMPH,WindSpeedGustMPH,Humidity,HourlyPrecipIn,Conditions,Clouds,dailyrainin,SolarRadiationWatts/m^2,SoftwareType,DateUTC
2013-08-03 00:01:00,79.4,62.8,29.82,West,280,0.0,2.0,57,0.00,,,0.00,0,WeatherCatV1.11B39,2013-08-03 07:01:00,
2013-08-03 00:06:00,79.3,63.2,29.82,West,280,0.0,2.0,58,0.00,,,0.00,0,WeatherCatV1.11B39,2013-08-03 07:06:00,
2013-08-03 00:11:00,79.2,62.6,29.81,West,280,0.0,1.0,57,0.00,,,0.00,0,WeatherCatV1.11B39,2013-08-03 07:11:00,
2013-08-03 00:16:00,79.2,62.6,29.81,West,280,0.0,0.0,57,0.00,,,0.00,0,WeatherCatV1.11B39,2013-08-03 07:16:00,
2013-08-03 00:21:00,79.1,62.5,29.81,West,280,0.0,0.0,57,0.00,,,0.00,0,WeatherCatV1.11B39,2013-08-03 07:21:00,
2013-08-03 00:26:00,78.9,62.3,29.82,West,280,0.0,0.0,57,0.00,,,0.00,0,WeatherCatV1.11B39,2013-08-03 07:26:00,
2013-08-03 00:31:00,78.7,62.7,29.81,West,280,0.0,0.0,58,0.00,,,0.00,0,WeatherCatV1.11B39,2013-08-03 07:31:00,
2013-08-03 00:36:00,78.5,62.5,29.81,West,280,0.0,0.0,58,0.00,,,0.00,0,WeatherCatV1.11B39,2013-08-03 07:36:00,
2013-08-03 00:41:00,78.4,62.4,29.81,West,280,0.0,0.0,58,0.00,,,0.00,0,WeatherCatV1.11B39,2013-08-03 07:41:00,
2013-08-03 00:46:00,78.3,62.8,29.81,West,280,0.0,0.0,59,0.00,,,0.00,0,WeatherCatV1.11B39,2013-08-03 07:46:00,
2013-08-03 00:51:00,78.2,62.7,29.81,West,280,0.0,0.0,59,0.00,,,0.00,0,WeatherCatV1.11B39,2013-08-03 07:51:00,
2013-08-03 00:56:00,78.0,62.5,29.81,West,280,0.0,0.0,59,0.00,,,0.00,0,WeatherCatV1.11B39,2013-08-03 07:56:00,
2013-08-03 01:01:00,77.8,62.8,29.81,West,280,0.0,0.0,60,0.00,,,0.00,0,WeatherCatV1.11B39,2013-08-03 08:01:00,
2013-08-03 01:06:00,77.7,62.7,29.81,West,280,0.0,0.0,60,0.00,,,0.00,0,WeatherCatV1.11B39,2013-08-03 08:06:00,
2013-08-03 01:11:00,77.7,62.7,29.81,West,276,2.0,3.0,60,0.00,,,0.00,0,WeatherCatV1.11B39,2013-08-03 08:11:00,
2013-08-03 01:16:00,77.7,62.7,29.80,West,276,0.0,0.0,60,0.00,,,0.00,0,WeatherCatV1.11B39,2013-08-03 08:16:00,
2013-08-03 01:21:00,77.7,62.7,29.80,West,276,0.0,0.0,60,0.00,,,0.00,0,WeatherCatV1.11B39,2013-08-03 08:21:00,
2013-08-03 01:26:00,77.7,62.7,29.80,West,276,0.0,0.0,60,0.00,,,0.00,0,WeatherCatV1.11B39,2013-08-03 08:26:00,
2013-08-03 01:31:00,77.6,62.6,29.80,West,276,1.0,1.0,60,0.00,,,0.00,0,WeatherCatV1.11B39,2013-08-03 08:31:00,
2013-08-03 01:36:00,77.5,62.5,29.80,West,277,1.0,2.0,60,0.00,,,0.00,0,WeatherCatV1.11B39,2013-08-03 08:36:00,
2013-08-03 01:41:00,77.3,62.3,29.80,West,277,0.0,1.0,60,0.00,,,0.00,0,WeatherCatV1.11B39,2013-08-03 08:41:00,
2013-08-03 01:46:00,77.2,62.2,29.80,West,277,1.0,1.0,60,0.00,,,0.00,0,WeatherCatV1.11B39,2013-08-03 08:46:00,
2013-08-03 01:51:00,77.1,62.1,29.80,West,277,0.0,1.0,60,0.00,,,0.00,0,WeatherCatV1.11B39,2013-08-03 08:51:00,
2013-08-03 01:56:00,77.0,62.0,29.79,West,277,0.0,0.0,60,0.00,,,0.00,0,WeatherCatV1.11B39,2013-08-03 08:56:00,
2013-08-03 02:01:00,76.9,62.4,29.79,West,277,0.0,1.0,61,0.00,,,0.00,0,WeatherCatV1.11B39,2013-08-03 09:01:00,
2013-08-03 02:06:00,76.8,62.3,29.79,West,277,0.0,0.0,61,0.00,,,0.00,0,WeatherCatV1.11B39,2013-08-03 09:06:00,
2013-08-03 02:11:00,76.7,62.2,29.79,West,277,0.0,0.0,61,0.00,,,0.00,0,WeatherCatV1.11B39,2013-08-03 09:11:00,
2013-08-03 02:16:00,76.7,62.2,29.80,West,277,0.0,0.0,61,0.00,,,0.00,0,WeatherCatV1.11B39,2013-08-03 09:16:00,
2013-08-03 02:21:00,76.6,62.1,29.80,West,277,0.0,0.0,61,0.00,,,0.00,0,WeatherCatV1.11B39,2013-08-03 09:21:00,
2013-08-03 02:26:00,76.4,62.4,29.80,West,277,0.0,0.0,62,0.00,,,0.00,0,WeatherCatV1.11B39,2013-08-03 09:26:00,
2013-08-03 02:31:00,76.3,62.3,29.80,West,277,0.0,0.0,62,0.00,,,0.00,0,WeatherCatV1.11B39,2013-08-03 09:31:00,
2013-08-03 02:36:00,76.2,62.2,29.80,West,277,0.0,0.0,62,0.00,,,0.00,0,WeatherCatV1.11B39,2013-08-03 09:36:00,
2013-08-03 02:41:00,76.0,62.0,29.80,West,277,0.0,0.0,62,0.00,,,0.00,0,WeatherCatV1.11B39,2013-08-03 09:41:00,
2013-08-03 02:46:00,75.9,62.4,29.80,West,277,0.0,0.0,63,0.00,,,0.00,0,WeatherCatV1.11B39,2013-08-03 09:46:00,
2013-08-03 02:51:00,75.7,62.2,29.80,West,277,0.0,0.0,63,0.00,,,0.00,0,WeatherCatV1.11B39,2013-08-03 09:51:00,
2013-08-03 02:56:00,75.6,62.1,29.80,West,277,0.0,0.0,63,0.00,,,0.00,0,WeatherCatV1.11B39,2013-08-03 09:56:00,
2013-08-03 03:01:00,75.3,61.8,29.79,West,277,0.0,0.0,63,0.00,,,0.00,0,WeatherCatV1.11B39,2013-08-03 10:01:00,
2013-08-03 03:06:00,75.2,62.2,29.80,West,277,1.0,2.0,64,0.00,,,0.00,0,WeatherCatV1.11B39,2013-08-03 10:06:00,
2013-08-03 03:11:00,75.0,62.0,29.80,West,277,0.0,1.0,64,0.00,,,0.00,0,WeatherCatV1.11B39,2013-08-03 10:11:00,
2013-08-03 03:16:00,74.8,61.8,29.80,West,277,0.0,0.0,64,0.00,,,0.00,0,WeatherCatV1.11B39,2013-08-03 10:16:00,
2013-08-03 03:21:00,74.6,62.0,29.80,West,277,0.0,0.0,65,0.00,,,0.00,0,WeatherCatV1.11B39,2013-08-03 10:21:00,
2013-08-03 03:26:00,74.4,61.8,29.80,West,277,0.0,0.0,65,0.00,,,0.00,0,WeatherCatV1.11B39,2013-08-03 10:26:00,
2013-08-03 03:31:00,74.3,61.8,29.80,West,277,0.0,0.0,65,0.00,,,0.00,0,WeatherCatV1.11B39,2013-08-03 10:31:00,
2013-08-03 03:36:00,74.2,61.7,29.80,West,277,0.0,0.0,65,0.00,,,0.00,0,WeatherCatV1.11B39,2013-08-03 10:36:00,
2013-08-03 03:41:00,74.0,61.5,29.80,West,277,0.0,0.0,65,0.00,,,0.00,0,WeatherCatV1.11B39,2013-08-03 10:41:00,
2013-08-03 03:46:00,73.9,61.8,29.79,West,277,0.0,1.0,66,0.00,,,0.00,0,WeatherCatV1.11B39,2013-08-03 10:46:00,
2013-08-03 03:51:00,73.7,61.6,29.80,West,277,0.0,0.0,66,0.00,,,0.00,0,WeatherCatV1.11B39,2013-08-03 10:51:00,
2013-08-03 03:56:00,73.6,61.5,29.80,West,277,0.0,0.0,66,0.00,,,0.00,0,WeatherCatV1.11B39,2013-08-03 10:56:00,
2013-08-03 04:01:00,73.4,61.8,29.80,West,277,0.0,0.0,67,0.00,,,0.00,0,WeatherCatV1.11B39,2013-08-03 11:01:00,
2013-08-03 04:06:00,73.2,61.6,29.80,West,277,0.0,0.0,67,0.00,,,0.00,0,WeatherCatV1.11B39,2013-08-03 11:06:00,
2013-08-03 04:11:00,73.1,61.9,29.80,West,277,0.0,1.0,68,0.00,,,0.00,0,WeatherCatV1.11B39,2013-08-03 11:11:00,
2013-08-03 04:16:00,72.9,61.7,29.80,West,277,1.0,1.0,68,0.00,,,0.00,0,WeatherCatV1.11B39,2013-08-03 11:16:00,
2013-08-03 04:21:00,72.8,61.6,29.80,West,277,0.0,0.0,68,0.00,,,0.00,0,WeatherCatV1.11B39,2013-08-03 11:21:00,
2013-08-03 04:26:00,72.5,61.7,29.80,West,277,0.0,1.0,69,0.00,,,0.00,0,WeatherCatV1.11B39,2013-08-03 11:26:00,
2013-08-03 04:31:00,72.4,61.6,29.80,West,277,0.0,0.0,69,0.00,,,0.00,0,WeatherCatV1.11B39,2013-08-03 11:31:00,
2013-08-03 04:36:00,72.3,61.5,29.80,West,277,0.0,0.0,69,0.00,,,0.00,0,WeatherCatV1.11B39,2013-08-03 11:36:00,
2013-08-03 04:41:00,72.2,61.4,29.80,West,277,0.0,0.0,69,0.00,,,0.00,0,WeatherCatV1.11B39,2013-08-03 11:41:00,
2013-08-03 04:46:00,72.1,61.4,29.80,West,277,0.0,0.0,69,0.00,,,0.00,0,WeatherCatV1.11B39,2013-08-03 11:46:00,
2013-08-03 04:51:00,71.9,61.6,29.80,West,277,0.0,0.0,70,0.00,,,0.00,0,WeatherCatV1.11B39,2013-08-03 11:51:00,
2013-08-03 04:56:00,71.8,61.1,29.80,West,277,1.0,1.0,69,0.00,,,0.00,0,WeatherCatV1.11B39,2013-08-03 11:56:00,
2013-08-03 05:01:00,71.7,61.0,29.80,West,277,0.0,1.0,69,0.00,,,0.00,0,WeatherCatV1.11B39,2013-08-03 12:01:00,
2013-08-03 05:06:00,71.6,60.9,29.80,West,277,0.0,0.0,69,0.00,,,0.00,0,WeatherCatV1.11B39,2013-08-03 12:06:00,
2013-08-03 05:11:00,71.5,61.2,29.81,West,277,0.0,2.0,70,0.00,,,0.00,0,WeatherCatV1.11B39,2013-08-03 12:11:00,
2013-08-03 05:16:00,71.4,61.1,29.81,West,276,0.0,3.0,70,0.00,,,0.00,0,WeatherCatV1.11B39,2013-08-03 12:16:00,
2013-08-03 05:21:00,71.3,61.4,29.81,West,276,0.0,2.0,71,0.00,,,0.00,0,WeatherCatV1.11B39,2013-08-03 12:21:00,
2013-08-03 05:26:00,71.3,61.8,29.82,West,276,0.0,2.0,72,0.00,,,0.00,0,WeatherCatV1.11B39,2013-08-03 12:26:00,
2013-08-03 05:31:00,71.2,61.7,29.82,West,276,0.0,0.0,72,0.00,,,0.00,5,WeatherCatV1.11B39,2013-08-03 12:31:00,
2013-08-03 05:36:00,71.2,62.1,29.82,West,276,0.0,1.0,73,0.00,,,0.00,5,WeatherCatV1.11B39,2013-08-03 12:36:00,
2013-08-03 05:41:00,71.2,62.1,29.82,West,276,0.0,1.0,73,0.00,,,0.00,5,WeatherCatV1.11B39,2013-08-03 12:41:00,
2013-08-03 05:42:00,71.2,62.1,29.82,West,276,2.0,2.0,73,0.00,,,0.00,7,WeatherCatV1.11B39,2013-08-03 12:42:00,
2013-08-03 05:46:00,71.2,62.1,29.82,West,276,2.0,2.0,73,0.00,,,0.00,9,WeatherCatV1.11B39,2013-08-03 12:46:00,
2013-08-03 05:52:00,71.2,62.1,29.82,West,276,1.0,3.0,73,0.00,,,0.00,16,WeatherCatV1.11B39,2013-08-03 12:52:00,
2013-08-03 05:57:00,71.2,62.1,29.82,West,276,0.0,1.0,73,0.00,,,0.00,25,WeatherCatV1.11B39,2013-08-03 12:57:00,
2013-08-03 06:02:00,71.2,62.1,29.82,West,276,0.0,0.0,73,0.00,,,0.00,32,WeatherCatV1.11B39,2013-08-03 13:02:00,
2013-08-03 06:07:00,71.3,62.2,29.82,West,276,1.0,1.0,73,0.00,,,0.00,39,WeatherCatV1.11B39,2013-08-03 13:07:00,
2013-08-03 06:12:00,71.4,62.3,29.82,West,276,0.0,1.0,73,0.00,,,0.00,51,WeatherCatV1.11B39,2013-08-03 13:12:00,
2013-08-03 06:17:00,71.6,62.5,29.82,West,276,0.0,0.0,73,0.00,,,0.00,81,WeatherCatV1.11B39,2013-08-03 13:17:00,
2013-08-03 06:22:00,71.9,62.8,29.83,West,276,0.0,0.0,73,0.00,,,0.00,90,WeatherCatV1.11B39,2013-08-03 13:22:00,
2013-08-03 06:27:00,72.1,63.0,29.83,West,276,0.0,1.0,73,0.00,,,0.00,118,WeatherCatV1.11B39,2013-08-03 13:27:00,
2013-08-03 06:32:00,72.5,63.3,29.83,West,276,0.0,0.0,73,0.00,,,0.00,120,WeatherCatV1.11B39,2013-08-03 13:32:00,
2013-08-03 06:37:00,73.0,63.0,29.83,West,276,0.0,0.0,71,0.00,,,0.00,121,WeatherCatV1.11B39,2013-08-03 13:37:00,
2013-08-03 06:42:00,73.5,63.1,29.84,West,276,0.0,0.0,70,0.00,,,0.00,144,WeatherCatV1.11B39,2013-08-03 13:42:00,
2013-08-03 06:47:00,74.0,63.2,29.84,West,276,0.0,0.0,69,0.00,,,0.00,172,WeatherCatV1.11B39,2013-08-03 13:47:00,
2013-08-03 06:52:00,74.8,63.1,29.84,West,276,1.0,1.0,67,0.00,,,0.00,181,WeatherCatV1.11B39,2013-08-03 13:52:00,
2013-08-03 06:57:00,75.8,63.2,29.84,West,276,1.0,1.0,65,0.00,,,0.00,209,WeatherCatV1.11B39,2013-08-03 13:57:00,
2013-08-03 07:02:00,76.5,63.4,29.84,West,277,0.0,2.0,64,0.00,,,0.00,234,WeatherCatV1.11B39,2013-08-03 14:02:00,
2013-08-03 07:07:00,77.1,63.5,29.84,West,277,0.0,0.0,63,0.00,,,0.00,237,WeatherCatV1.11B39,2013-08-03 14:07:00,
2013-08-03 07:12:00,77.7,63.2,29.84,West,277,3.0,3.0,61,0.00,,,0.00,257,WeatherCatV1.11B39,2013-08-03 14:12:00,
2013-08-03 07:17:00,78.2,63.6,29.84,West,277,0.0,2.0,61,0.00,,,0.00,216,WeatherCatV1.11B39,2013-08-03 14:17:00,
2013-08-03 07:22:00,78.8,63.7,29.85,West,277,0.0,2.0,60,0.00,,,0.00,267,WeatherCatV1.11B39,2013-08-03 14:22:00,
2013-08-03 07:27:00,79.4,63.8,29.85,West,277,3.0,4.0,59,0.00,,,0.00,304,WeatherCatV1.11B39,2013-08-03 14:27:00,
2013-08-03 07:32:00,80.1,63.0,29.85,West,277,2.0,4.0,56,0.00,,,0.00,318,WeatherCatV1.11B39,2013-08-03 14:32:00,
2013-08-03 07:37:00,80.5,62.8,29.85,West,278,1.0,4.0,55,0.00,,,0.00,322,WeatherCatV1.11B39,2013-08-03 14:37:00,
2013-08-03 07:42:00,80.9,63.2,29.85,West,272,2.0,5.0,55,0.00,,,0.00,334,WeatherCatV1.11B39,2013-08-03 14:42:00,
2013-08-03 07:47:00,81.5,63.2,29.85,WSW,251,2.0,5.0,54,0.00,,,0.00,343,WeatherCatV1.11B39,2013-08-03 14:47:00,
2013-08-03 07:52:00,82.0,63.7,29.86,WSW,252,5.0,5.0,54,0.00,,,0.00,360,WeatherCatV1.11B39,2013-08-03 14:52:00,
2013-08-03 07:57:00,82.4,64.1,29.86,SW,234,0.0,3.0,54,0.00,,,0.00,350,WeatherCatV1.11B39,2013-08-03 14:57:00,
2013-08-03 08:02:00,82.9,64.0,29.86,West,267,3.0,3.0,53,0.00,,,0.00,394,WeatherCatV1.11B39,2013-08-03 15:02:00,
2013-08-03 08:07:00,83.2,63.7,29.86,West,269,2.0,4.0,52,0.00,,,0.00,408,WeatherCatV1.11B39,2013-08-03 15:07:00,
2013-08-03 08:12:00,83.6,64.1,29.86,West,261,4.0,4.0,52,0.00,,,0.00,425,WeatherCatV1.11B39,2013-08-03 15:12:00,
2013-08-03 08:17:00,84.2,64.1,29.86,WSW,242,1.0,3.0,51,0.00,,,0.00,443,WeatherCatV1.11B39,2013-08-03 15:17:00,
2013-08-03 08:22:00,84.5,63.8,29.86,WSW,243,2.0,4.0,50,0.00,,,0.00,457,WeatherCatV1.11B39,2013-08-03 15:22:00,
2013-08-03 08:27:00,84.8,63.5,29.86,WSW,243,3.0,3.0,49,0.00,,,0.00,475,WeatherCatV1.11B39,2013-08-03 15:27:00,
2013-08-03 08:32:00,85.4,64.0,29.86,West,265,3.0,4.0,49,0.00,,,0.00,489,WeatherCatV1.11B39,2013-08-03 15:32:00,
2013-08-03 08:37:00,85.8,63.2,29.86,West,267,2.0,4.0,47,0.00,,,0.00,504,WeatherCatV1.11B39,2013-08-03 15:37:00,
2013-08-03 08:42:00,86.2,63.6,29.86,WSW,240,2.0,4.0,47,0.00,,,0.00,522,WeatherCatV1.11B39,2013-08-03 15:42:00,
2013-08-03 08:47:00,87.1,63.8,29.86,SSW,198,2.0,4.0,46,0.00,,,0.00,534,WeatherCatV1.11B39,2013-08-03 15:47:00,
2013-08-03 08:52:00,87.6,63.6,29.86,SSW,199,0.0,2.0,45,0.00,,,0.00,548,WeatherCatV1.11B39,2013-08-03 15:52:00,
2013-08-03 08:57:00,88.1,63.4,29.85,SW,234,1.0,4.0,44,0.00,,,0.00,568,WeatherCatV1.11B39,2013-08-03 15:57:00,
2013-08-03 09:02:00,88.5,63.8,29.85,WSW,250,2.0,4.0,44,0.00,,,0.00,582,WeatherCatV1.11B39,2013-08-03 16:02:00,
2013-08-03 09:07:00,89.2,63.7,29.85,SW,224,2.0,4.0,43,0.00,,,0.00,592,WeatherCatV1.11B39,2013-08-03 16:07:00,
2013-08-03 09:12:00,89.8,62.9,29.85,SW,226,1.0,2.0,41,0.00,,,0.00,612,WeatherCatV1.11B39,2013-08-03 16:12:00,
2013-08-03 09:17:00,90.2,63.3,29.85,West,281,2.0,3.0,41,0.00,,,0.00,626,WeatherCatV1.11B39,2013-08-03 16:17:00,
2013-08-03 09:22:00,90.4,62.7,29.85,WNW,284,3.0,4.0,40,0.00,,,0.00,638,WeatherCatV1.11B39,2013-08-03 16:22:00,
2013-08-03 09:27:00,90.6,61.5,29.85,WSW,251,0.0,2.0,38,0.00,,,0.00,654,WeatherCatV1.11B39,2013-08-03 16:27:00,
2013-08-03 09:32:00,91.3,62.8,29.85,SSW,195,2.0,4.0,39,0.00,,,0.00,668,WeatherCatV1.11B39,2013-08-03 16:32:00,
2013-08-03 09:37:00,92.0,61.9,29.85,West,260,3.0,6.0,37,0.00,,,0.00,680,WeatherCatV1.11B39,2013-08-03 16:37:00,
2013-08-03 09:42:00,92.5,60.8,29.85,West,268,2.0,4.0,35,0.00,,,0.00,694,WeatherCatV1.11B39,2013-08-03 16:42:00,
2013-08-03 09:47:00,92.8,59.4,29.85,WSW,247,3.0,4.0,33,0.00,,,0.00,710,WeatherCatV1.11B39,2013-08-03 16:47:00,
2013-08-03 09:52:00,91.9,61.1,29.85,SW,222,6.0,6.0,36,0.00,,,0.00,719,WeatherCatV1.11B39,2013-08-03 16:52:00,
2013-08-03 09:57:00,92.2,59.7,29.85,SW,226,2.0,4.0,34,0.00,,,0.00,735,WeatherCatV1.11B39,2013-08-03 16:57:00,
2013-08-03 10:02:00,91.8,59.4,29.85,WSW,253,3.0,5.0,34,0.00,,,0.00,744,WeatherCatV1.11B39,2013-08-03 17:02:00,
2013-08-03 10:07:00,91.4,59.0,29.85,SW,224,0.0,3.0,34,0.00,,,0.00,751,WeatherCatV1.11B39,2013-08-03 17:07:00,
2013-08-03 10:12:00,92.1,58.8,29.85,SW,228,2.0,6.0,33,0.00,,,0.00,763,WeatherCatV1.11B39,2013-08-03 17:12:00,
2013-08-03 10:17:00,92.3,59.0,29.85,South,186,4.0,4.0,33,0.00,,,0.00,775,WeatherCatV1.11B39,2013-08-03 17:17:00,
2013-08-03 10:22:00,92.6,58.4,29.85,South,177,2.0,5.0,32,0.00,,,0.00,786,WeatherCatV1.11B39,2013-08-03 17:22:00,
2013-08-03 10:27:00,93.8,60.3,29.85,WNW,284,4.0,7.0,33,0.00,,,0.00,796,WeatherCatV1.11B39,2013-08-03 17:27:00,
2013-08-03 10:32:00,94.2,58.9,29.85,West,280,2.0,5.0,31,0.00,,,0.00,805,WeatherCatV1.11B39,2013-08-03 17:32:00,
2013-08-03 10:37:00,93.0,59.6,29.85,West,273,4.0,4.0,33,0.00,,,0.00,814,WeatherCatV1.11B39,2013-08-03 17:37:00,
2013-08-03 10:42:00,94.3,59.9,29.85,SSW,199,4.0,7.0,32,0.00,,,0.00,824,WeatherCatV1.11B39,2013-08-03 17:42:00,
2013-08-03 10:47:00,94.3,59.9,29.85,SW,229,2.0,2.0,32,0.00,,,0.00,835,WeatherCatV1.11B39,2013-08-03 17:47:00,
2013-08-03 10:52:00,95.5,60.0,29.85,SSW,201,2.0,6.0,31,0.00,,,0.00,840,WeatherCatV1.11B39,2013-08-03 17:52:00,
2013-08-03 10:57:00,94.8,59.4,29.85,SSW,209,4.0,6.0,31,0.00,,,0.00,849,WeatherCatV1.11B39,2013-08-03 17:57:00,
2013-08-03 11:02:00,95.8,60.3,29.85,South,176,3.0,5.0,31,0.00,,,0.00,854,WeatherCatV1.11B39,2013-08-03 18:02:00,
2013-08-03 11:07:00,95.1,59.7,29.84,South,186,5.0,8.0,31,0.00,,,0.00,865,WeatherCatV1.11B39,2013-08-03 18:07:00,
2013-08-03 11:12:00,94.9,60.4,29.84,NNW,343,5.0,5.0,32,0.00,,,0.00,872,WeatherCatV1.11B39,2013-08-03 18:12:00,
2013-08-03 11:17:00,95.3,59.8,29.84,SSW,209,4.0,9.0,31,0.00,,,0.00,874,WeatherCatV1.11B39,2013-08-03 18:17:00,
2013-08-03 11:22:00,95.7,60.2,29.83,SW,228,4.0,6.0,31,0.00,,,0.00,881,WeatherCatV1.11B39,2013-08-03 18:22:00,
2013-08-03 11:27:00,96.9,60.3,29.83,West,278,4.0,7.0,30,0.00,,,0.00,891,WeatherCatV1.11B39,2013-08-03 18:27:00,
2013-08-03 11:32:00,98.2,60.4,29.83,WNW,299,3.0,7.0,29,0.00,,,0.00,895,WeatherCatV1.11B39,2013-08-03 18:32:00,
2013-08-03 11:37:00,97.7,60.0,29.83,SSW,204,5.0,6.0,29,0.00,,,0.00,902,WeatherCatV1.11B39,2013-08-03 18:37:00,
2013-08-03 11:42:00,97.2,59.6,29.83,South,191,6.0,7.0,29,0.00,,,0.00,911,WeatherCatV1.11B39,2013-08-03 18:42:00,
2013-08-03 11:47:00,97.6,59.9,29.82,SSW,193,3.0,5.0,29,0.00,,,0.00,912,WeatherCatV1.11B39,2013-08-03 18:47:00,
2013-08-03 11:52:00,97.8,60.1,29.82,WNW,287,5.0,11.0,29,0.00,,,0.00,912,WeatherCatV1.11B39,2013-08-03 18:52:00,
2013-08-03 11:57:00,96.8,59.2,29.82,WSW,255,7.0,10.0,29,0.00,,,0.00,919,WeatherCatV1.11B39,2013-08-03 18:57:00,
2013-08-03 12:02:00,96.7,59.2,29.82,SSW,199,2.0,5.0,29,0.00,,,0.00,926,WeatherCatV1.11B39,2013-08-03 19:02:00,
2013-08-03 12:07:00,96.8,59.2,29.82,WNW,291,1.0,5.0,29,0.00,,,0.00,928,WeatherCatV1.11B39,2013-08-03 19:07:00,
2013-08-03 12:12:00,96.7,59.2,29.82,SW,228,5.0,7.0,29,0.00,,,0.00,926,WeatherCatV1.11B39,2013-08-03 19:12:00,
2013-08-03 12:17:00,97.7,59.0,29.82,SSE,166,4.0,4.0,28,0.00,,,0.00,933,WeatherCatV1.11B39,2013-08-03 19:17:00,
2013-08-03 12:22:00,97.7,59.0,29.81,SE,145,1.0,4.0,28,0.00,,,0.00,932,WeatherCatV1.11B39,2013-08-03 19:22:00,
2013-08-03 12:27:00,97.6,59.9,29.81,South,181,4.0,5.0,29,0.00,,,0.00,930,WeatherCatV1.11B39,2013-08-03 19:27:00,
2013-08-03 12:32:00,98.6,59.8,29.81,SSE,168,0.0,8.0,28,0.00,,,0.00,935,WeatherCatV1.11B39,2013-08-03 19:32:00,
2013-08-03 12:37:00,98.8,60.0,29.81,WSW,237,2.0,7.0,28,0.00,,,0.00,937,WeatherCatV1.11B39,2013-08-03 19:37:00,
2013-08-03 12:42:00,99.3,59.4,29.81,NW,324,2.0,6.0,27,0.00,,,0.00,930,WeatherCatV1.11B39,2013-08-03 19:42:00,
2013-08-03 12:47:00,98.3,58.5,29.81,NNW,331,2.0,2.0,27,0.00,,,0.00,928,WeatherCatV1.11B39,2013-08-03 19:47:00,
2013-08-03 12:52:00,98.6,58.8,29.80,WNW,290,4.0,9.0,27,0.00,,,0.00,928,WeatherCatV1.11B39,2013-08-03 19:52:00,
2013-08-03 12:57:00,99.3,59.4,29.80,South,186,5.0,9.0,27,0.00,,,0.00,933,WeatherCatV1.11B39,2013-08-03 19:57:00,
2013-08-03 13:02:00,100.6,58.3,29.80,SW,222,5.0,8.0,25,0.00,,,0.00,933,WeatherCatV1.11B39,2013-08-03 20:02:00,
2013-08-03 13:07:00,99.8,58.7,29.80,SW,216,4.0,6.0,26,0.00,,,0.00,932,WeatherCatV1.11B39,2013-08-03 20:07:00,
2013-08-03 13:12:00,100.3,58.0,29.80,SSE,163,1.0,5.0,25,0.00,,,0.00,925,WeatherCatV1.11B39,2013-08-03 20:12:00,
2013-08-03 13:17:00,99.6,57.5,29.80,WNW,293,6.0,9.0,25,0.00,,,0.00,921,WeatherCatV1.11B39,2013-08-03 20:17:00,
2013-08-03 13:22:00,100.2,56.8,29.79,West,278,7.0,10.0,24,0.00,,,0.00,912,WeatherCatV1.11B39,2013-08-03 20:22:00,
2013-08-03 13:27:00,100.1,56.7,29.79,SE,144,4.0,11.0,24,0.00,,,0.00,911,WeatherCatV1.11B39,2013-08-03 20:27:00,
2013-08-03 13:32:00,101.4,57.8,29.79,SW,214,5.0,6.0,24,0.00,,,0.00,909,WeatherCatV1.11B39,2013-08-03 20:32:00,
2013-08-03 13:37:00,102.3,57.4,29.79,SSW,192,2.0,5.0,23,0.00,,,0.00,902,WeatherCatV1.11B39,2013-08-03 20:37:00,
2013-08-03 13:42:00,102.3,57.4,29.79,SW,216,8.0,11.0,23,0.00,,,0.00,900,WeatherCatV1.11B39,2013-08-03 20:42:00,
2013-08-03 13:47:00,102.3,57.4,29.78,South,185,6.0,8.0,23,0.00,,,0.00,891,WeatherCatV1.11B39,2013-08-03 20:47:00,
2013-08-03 13:52:00,101.4,56.6,29.78,NNW,348,6.0,6.0,23,0.00,,,0.00,888,WeatherCatV1.11B39,2013-08-03 20:52:00,
2013-08-03 13:57:00,101.1,56.4,29.78,West,268,5.0,8.0,23,0.00,,,0.00,877,WeatherCatV1.11B39,2013-08-03 20:57:00,
2013-08-03 14:02:00,102.3,56.2,29.78,SW,220,8.0,10.0,22,0.00,,,0.00,870,WeatherCatV1.11B39,2013-08-03 21:02:00,
2013-08-03 14:07:00,101.0,56.3,29.78,WNW,283,4.0,10.0,23,0.00,,,0.00,860,WeatherCatV1.11B39,2013-08-03 21:07:00,
2013-08-03 14:12:00,100.8,56.1,29.77,WNW,288,5.0,10.0,23,0.00,,,0.00,856,WeatherCatV1.11B39,2013-08-03 21:12:00,
2013-08-03 14:17:00,100.8,56.1,29.77,WSW,250,12.0,12.0,23,0.00,,,0.00,846,WeatherCatV1.11B39,2013-08-03 21:17:00,
2013-08-03 14:22:00,101.5,56.7,29.77,WSW,249,7.0,10.0,23,0.00,,,0.00,840,WeatherCatV1.11B39,2013-08-03 21:22:00,
2013-08-03 14:27:00,101.3,56.6,29.77,SSW,204,3.0,4.0,23,0.00,,,0.00,831,WeatherCatV1.11B39,2013-08-03 21:27:00,
2013-08-03 14:32:00,102.0,55.9,29.76,West,280,8.0,10.0,22,0.00,,,0.00,828,WeatherCatV1.11B39,2013-08-03 21:32:00,
2013-08-03 14:37:00,101.2,56.5,29.76,SSW,195,1.0,1.0,23,0.00,,,0.00,817,WeatherCatV1.11B39,2013-08-03 21:37:00,
2013-08-03 14:42:00,101.8,55.7,29.76,West,276,3.0,8.0,22,0.00,,,0.00,784,WeatherCatV1.11B39,2013-08-03 21:42:00,
2013-08-03 14:47:00,100.3,56.9,29.76,NW,317,5.0,11.0,24,0.00,,,0.00,798,WeatherCatV1.11B39,2013-08-03 21:47:00,
2013-08-03 14:52:00,100.5,55.9,29.75,SW,218,1.0,6.0,23,0.00,,,0.00,779,WeatherCatV1.11B39,2013-08-03 21:52:00,
2013-08-03 14:57:00,101.0,56.3,29.75,SW,231,1.0,7.0,23,0.00,,,0.00,772,WeatherCatV1.11B39,2013-08-03 21:57:00,
2013-08-03 15:02:00,101.0,56.3,29.75,NNW,337,4.0,7.0,23,0.00,,,0.00,766,WeatherCatV1.11B39,2013-08-03 22:02:00,
2013-08-03 15:07:00,100.8,57.3,29.75,West,273,4.0,6.0,24,0.00,,,0.00,671,WeatherCatV1.11B39,2013-08-03 22:07:00,
2013-08-03 15:12:00,101.9,57.1,29.74,SW,230,6.0,8.0,23,0.00,,,0.00,759,WeatherCatV1.11B39,2013-08-03 22:12:00,
2013-08-03 15:17:00,102.0,55.9,29.74,South,188,5.0,10.0,22,0.00,,,0.00,754,WeatherCatV1.11B39,2013-08-03 22:17:00,
2013-08-03 15:22:00,101.9,57.1,29.74,WSW,253,9.0,9.0,23,0.00,,,0.00,735,WeatherCatV1.11B39,2013-08-03 22:22:00,
2013-08-03 15:27:00,101.5,56.7,29.74,WNW,285,3.0,8.0,23,0.00,,,0.00,715,WeatherCatV1.11B39,2013-08-03 22:27:00,
2013-08-03 15:32:00,102.5,56.3,29.73,SW,222,8.0,9.0,22,0.00,,,0.00,698,WeatherCatV1.11B39,2013-08-03 22:32:00,
2013-08-03 15:37:00,101.4,56.6,29.73,West,261,7.0,12.0,23,0.00,,,0.00,640,WeatherCatV1.11B39,2013-08-03 22:37:00,
2013-08-03 15:42:00,101.1,55.2,29.73,West,262,3.0,4.0,22,0.00,,,0.00,322,WeatherCatV1.11B39,2013-08-03 22:42:00,
2013-08-03 15:47:00,100.7,56.1,29.73,SSW,195,5.0,9.0,23,0.00,,,0.00,566,WeatherCatV1.11B39,2013-08-03 22:47:00,
2013-08-03 15:52:00,100.7,56.1,29.73,SSW,209,3.0,6.0,23,0.00,,,0.00,487,WeatherCatV1.11B39,2013-08-03 22:52:00,
2013-08-03 15:57:00,100.6,57.2,29.73,WSW,240,7.0,7.0,24,0.00,,,0.00,239,WeatherCatV1.11B39,2013-08-03 22:57:00,
2013-08-03 16:02:00,100.1,56.7,29.73,WSW,248,7.0,9.0,24,0.00,,,0.00,230,WeatherCatV1.11B39,2013-08-03 23:02:00,
2013-08-03 16:07:00,99.6,56.3,29.73,WSW,240,8.0,13.0,24,0.00,,,0.00,462,WeatherCatV1.11B39,2013-08-03 23:07:00,
2013-08-03 16:12:00,100.1,57.9,29.73,West,269,6.0,9.0,25,0.00,,,0.00,663,WeatherCatV1.11B39,2013-08-03 23:12:00,
2013-08-03 16:17:00,100.3,56.9,29.73,WSW,251,8.0,10.0,24,0.00,,,0.00,214,WeatherCatV1.11B39,2013-08-03 23:17:00,
2013-08-03 16:22:00,99.5,57.4,29.73,West,279,4.0,9.0,25,0.00,,,0.00,592,WeatherCatV1.11B39,2013-08-03 23:22:00,
2013-08-03 16:27:00,100.8,57.3,29.73,SW,222,1.0,6.0,24,0.00,,,0.00,531,WeatherCatV1.11B39,2013-08-03 23:27:00,
2013-08-03 16:32:00,101.2,57.7,29.72,South,180,4.0,11.0,24,0.00,,,0.00,589,WeatherCatV1.11B39,2013-08-03 23:32:00,
2013-08-03 16:37:00,100.9,57.4,29.72,SSW,193,2.0,4.0,24,0.00,,,0.00,629,WeatherCatV1.11B39,2013-08-03 23:37:00,
2013-08-03 16:42:00,101.0,56.3,29.72,West,278,7.0,11.0,23,0.00,,,0.00,664,WeatherCatV1.11B39,2013-08-03 23:42:00,
2013-08-03 16:47:00,101.1,56.4,29.72,SSW,211,3.0,5.0,23,0.00,,,0.00,680,WeatherCatV1.11B39,2013-08-03 23:47:00,
2013-08-03 16:52:00,100.3,56.9,29.72,WSW,245,4.0,5.0,24,0.00,,,0.00,265,WeatherCatV1.11B39,2013-08-03 23:52:00,
2013-08-03 16:57:00,99.8,57.6,29.72,SSW,210,4.0,6.0,25,0.00,,,0.00,285,WeatherCatV1.11B39,2013-08-03 23:57:00,
2013-08-03 17:02:00,100.3,58.0,29.72,West,275,8.0,9.0,25,0.00,,,0.00,276,WeatherCatV1.11B39,2013-08-04 00:02:00,
2013-08-03 17:07:00,99.4,57.3,29.72,SSW,203,5.0,9.0,25,0.00,,,0.00,364,WeatherCatV1.11B39,2013-08-04 00:07:00,
2013-08-03 17:12:00,99.8,57.6,29.72,West,265,4.0,5.0,25,0.00,,,0.00,202,WeatherCatV1.11B39,2013-08-04 00:12:00,
2013-08-03 17:17:00,99.4,57.3,29.71,WSW,253,10.0,10.0,25,0.00,,,0.00,155,WeatherCatV1.11B39,2013-08-04 00:17:00,
2013-08-03 17:22:00,98.8,57.9,29.72,West,265,7.0,7.0,26,0.00,,,0.00,137,WeatherCatV1.11B39,2013-08-04 00:22:00,
2013-08-03 17:27:00,98.7,56.7,29.72,West,276,8.0,8.0,25,0.00,,,0.00,132,WeatherCatV1.11B39,2013-08-04 00:27:00,
2013-08-03 17:32:00,98.4,56.5,29.72,WSW,251,4.0,9.0,25,0.00,,,0.00,104,WeatherCatV1.11B39,2013-08-04 00:32:00,
2013-08-03 17:37:00,98.0,56.1,29.73,SW,228,3.0,7.0,25,0.00,,,0.00,91,WeatherCatV1.11B39,2013-08-04 00:37:00,
2013-08-03 17:42:00,97.8,57.0,29.73,West,276,7.0,7.0,26,0.00,,,0.00,90,WeatherCatV1.11B39,2013-08-04 00:42:00,
2013-08-03 17:47:00,97.6,56.9,29.73,NW,309,10.0,11.0,26,0.00,,,0.00,83,WeatherCatV1.11B39,2013-08-04 00:47:00,
2013-08-03 17:52:00,97.3,56.6,29.73,West,277,9.0,13.0,26,0.00,,,0.00,86,WeatherCatV1.11B39,2013-08-04 00:52:00,
2013-08-03 17:57:00,97.2,56.5,29.73,West,265,6.0,7.0,26,0.00,,,0.00,97,WeatherCatV1.11B39,2013-08-04 00:57:00,
2013-08-03 18:02:00,97.2,56.5,29.72,West,277,5.0,7.0,26,0.00,,,0.00,84,WeatherCatV1.11B39,2013-08-04 01:02:00,
2013-08-03 18:07:00,97.2,55.4,29.72,WNW,297,9.0,9.0,25,0.00,,,0.00,77,WeatherCatV1.11B39,2013-08-04 01:07:00,
2013-08-03 18:12:00,96.9,55.2,29.72,WSW,257,5.0,7.0,25,0.00,,,0.00,74,WeatherCatV1.11B39,2013-08-04 01:12:00,
2013-08-03 18:17:00,96.7,55.0,29.72,WSW,251,5.0,8.0,25,0.00,,,0.00,67,WeatherCatV1.11B39,2013-08-04 01:17:00,
2013-08-03 18:22:00,96.6,54.9,29.72,West,261,7.0,10.0,25,0.00,,,0.00,60,WeatherCatV1.11B39,2013-08-04 01:22:00,
2013-08-03 18:27:00,96.5,54.9,29.73,SSW,197,4.0,10.0,25,0.00,,,0.00,53,WeatherCatV1.11B39,2013-08-04 01:27:00,
2013-08-03 18:32:00,96.3,54.7,29.73,WSW,255,5.0,9.0,25,0.00,,,0.00,44,WeatherCatV1.11B39,2013-08-04 01:32:00,
2013-08-03 18:37:00,96.2,55.7,29.73,WSW,240,7.0,16.0,26,0.00,,,0.00,33,WeatherCatV1.11B39,2013-08-04 01:37:00,
2013-08-03 18:42:00,95.4,58.0,29.73,WNW,285,8.0,14.0,29,0.00,,,0.00,26,WeatherCatV1.11B39,2013-08-04 01:42:00,
2013-08-03 18:47:00,94.8,58.5,29.73,WSW,255,5.0,17.0,30,0.00,,,0.00,21,WeatherCatV1.11B39,2013-08-04 01:47:00,
2013-08-03 18:52:00,94.4,59.0,29.73,SW,225,6.0,15.0,31,0.00,,,0.00,16,WeatherCatV1.11B39,2013-08-04 01:52:00,
2013-08-03 18:57:00,94.1,58.8,29.73,West,275,8.0,9.0,31,0.00,,,0.00,12,WeatherCatV1.11B39,2013-08-04 01:57:00,
2013-08-03 19:02:00,93.8,58.5,29.73,West,263,7.0,8.0,31,0.00,,,0.00,9,WeatherCatV1.11B39,2013-08-04 02:02:00,
2013-08-03 19:07:00,93.5,59.2,29.74,West,278,3.0,9.0,32,0.00,,,0.00,5,WeatherCatV1.11B39,2013-08-04 02:07:00,
2013-08-03 19:12:00,93.2,59.8,29.73,WSW,242,7.0,11.0,33,0.00,,,0.00,0,WeatherCatV1.11B39,2013-08-04 02:12:00,
2013-08-03 19:17:00,92.9,59.5,29.73,WNW,282,11.0,13.0,33,0.00,,,0.00,0,WeatherCatV1.11B39,2013-08-04 02:17:00,
2013-08-03 19:22:00,92.6,59.2,29.73,WSW,245,11.0,15.0,33,0.00,,,0.00,0,WeatherCatV1.11B39,2013-08-04 02:22:00,
2013-08-03 19:27:00,92.4,59.9,29.73,West,273,9.0,13.0,34,0.00,,,0.00,0,WeatherCatV1.11B39,2013-08-04 02:27:00,
2013-08-03 19:32:00,92.1,59.6,29.73,WSW,257,10.0,10.0,34,0.00,,,0.00,0,WeatherCatV1.11B39,2013-08-04 02:32:00,
2013-08-03 19:37:00,91.8,60.2,29.73,West,280,11.0,11.0,35,0.00,,,0.00,0,WeatherCatV1.11B39,2013-08-04 02:37:00,
2013-08-03 19:42:00,91.5,59.9,29.73,West,276,7.0,14.0,35,0.00,,,0.00,0,WeatherCatV1.11B39,2013-08-04 02:42:00,
2013-08-03 19:47:00,91.3,59.8,29.74,WNW,283,8.0,11.0,35,0.00,,,0.00,0,WeatherCatV1.11B39,2013-08-04 02:47:00,
2013-08-03 19:52:00,91.0,59.5,29.74,West,272,6.0,9.0,35,0.00,,,0.00,0,WeatherCatV1.11B39,2013-08-04 02:52:00,
2013-08-03 19:57:00,90.8,59.3,29.74,WNW,283,9.0,12.0,35,0.00,,,0.00,0,WeatherCatV1.11B39,2013-08-04 02:57:00,
2013-08-03 20:02:00,90.7,59.2,29.75,West,259,7.0,10.0,35,0.00,,,0.00,0,WeatherCatV1.11B39,2013-08-04 03:02:00,
2013-08-03 20:07:00,90.6,58.3,29.75,WNW,289,7.0,9.0,34,0.00,,,0.00,0,WeatherCatV1.11B39,2013-08-04 03:07:00,
2013-08-03 20:12:00,90.4,58.2,29.75,West,280,4.0,12.0,34,0.00,,,0.00,0,WeatherCatV1.11B39,2013-08-04 03:12:00,
2013-08-03 20:17:00,90.3,58.1,29.75,WSW,255,10.0,10.0,34,0.00,,,0.00,0,WeatherCatV1.11B39,2013-08-04 03:17:00,
2013-08-03 20:22:00,90.2,58.0,29.75,West,269,8.0,9.0,34,0.00,,,0.00,0,WeatherCatV1.11B39,2013-08-04 03:22:00,
2013-08-03 20:27:00,90.1,57.1,29.75,WNW,289,5.0,6.0,33,0.00,,,0.00,0,WeatherCatV1.11B39,2013-08-04 03:27:00,
2013-08-03 20:32:00,90.0,57.0,29.76,WSW,237,4.0,6.0,33,0.00,,,0.00,0,WeatherCatV1.11B39,2013-08-04 03:32:00,
2013-08-03 20:37:00,90.0,56.1,29.76,WSW,247,5.0,5.0,32,0.00,,,0.00,0,WeatherCatV1.11B39,2013-08-04 03:37:00,
2013-08-03 20:42:00,90.0,56.1,29.76,WNW,285,4.0,8.0,32,0.00,,,0.00,0,WeatherCatV1.11B39,2013-08-04 03:42:00,
2013-08-03 20:47:00,89.9,56.0,29.77,WSW,249,2.0,7.0,32,0.00,,,0.00,0,WeatherCatV1.11B39,2013-08-04 03:47:00,
2013-08-03 20:52:00,89.7,55.9,29.77,West,263,3.0,9.0,32,0.00,,,0.00,0,WeatherCatV1.11B39,2013-08-04 03:52:00,
2013-08-03 20:57:00,89.6,55.8,29.77,SW,216,3.0,5.0,32,0.00,,,0.00,0,WeatherCatV1.11B39,2013-08-04 03:57:00,
2013-08-03 21:01:00,89.4,55.6,29.77,SW,215,0.0,2.0,32,0.00,,,0.00,0,WeatherCatV1.11B39,2013-08-04 04:01:00,
2013-08-03 21:06:00,89.1,55.4,29.77,SW,216,0.0,4.0,32,0.00,,,0.00,0,WeatherCatV1.11B39,2013-08-04 04:06:00,
2013-08-03 21:11:00,88.9,56.0,29.77,SW,216,0.0,0.0,33,0.00,,,0.00,0,WeatherCatV1.11B39,2013-08-04 04:11:00,
2013-08-03 21:16:00,88.8,55.9,29.78,SW,215,0.0,1.0,33,0.00,,,0.00,0,WeatherCatV1.11B39,2013-08-04 04:16:00,
2013-08-03 21:21:00,88.5,55.7,29.78,SW,215,1.0,1.0,33,0.00,,,0.00,0,WeatherCatV1.11B39,2013-08-04 04:21:00,
2013-08-03 21:26:00,88.4,56.4,29.78,SSE,167,0.0,2.0,34,0.00,,,0.00,0,WeatherCatV1.11B39,2013-08-04 04:26:00,
2013-08-03 21:31:00,88.4,57.2,29.78,SSE,165,1.0,1.0,35,0.00,,,0.00,0,WeatherCatV1.11B39,2013-08-04 04:31:00,
2013-08-03 21:36:00,88.2,57.8,29.78,SSE,165,0.0,1.0,36,0.00,,,0.00,0,WeatherCatV1.11B39,2013-08-04 04:36:00,
2013-08-03 21:41:00,87.9,58.3,29.78,SSE,165,0.0,1.0,37,0.00,,,0.00,0,WeatherCatV1.11B39,2013-08-04 04:41:00,
2013-08-03 21:46:00,87.7,58.2,29.78,SSE,165,1.0,2.0,37,0.00,,,0.00,0,WeatherCatV1.11B39,2013-08-04 04:46:00,
2013-08-03 21:51:00,87.6,58.1,29.78,SSE,165,1.0,2.0,37,0.00,,,0.00,0,WeatherCatV1.11B39,2013-08-04 04:51:00,
2013-08-03 21:56:00,87.5,58.7,29.78,SSE,165,1.0,2.0,38,0.00,,,0.00,0,WeatherCatV1.11B39,2013-08-04 04:56:00,
2013-08-03 22:01:00,87.5,58.7,29.78,SSE,165,0.0,1.0,38,0.00,,,0.00,0,WeatherCatV1.11B39,2013-08-04 05:01:00,
2013-08-03 22:06:00,87.4,58.6,29.77,SSE,165,0.0,1.0,38,0.00,,,0.00,0,WeatherCatV1.11B39,2013-08-04 05:06:00,
2013-08-03 22:11:00,87.2,58.5,29.78,SSE,165,0.0,0.0,38,0.00,,,0.00,0,WeatherCatV1.11B39,2013-08-04 05:11:00,
2013-08-03 22:16:00,87.1,59.1,29.77,SSE,165,0.0,0.0,39,0.00,,,0.00,0,WeatherCatV1.11B39,2013-08-04 05:16:00,
2013-08-03 22:21:00,86.9,58.9,29.77,SSE,165,0.0,1.0,39,0.00,,,0.00,0,WeatherCatV1.11B39,2013-08-04 05:21:00,
2013-08-03 22:26:00,86.8,58.8,29.77,SSE,165,0.0,1.0,39,0.00,,,0.00,0,WeatherCatV1.11B39,2013-08-04 05:26:00,
2013-08-03 22:31:00,86.6,58.7,29.77,SSE,165,0.0,0.0,39,0.00,,,0.00,0,WeatherCatV1.11B39,2013-08-04 05:31:00,
2013-08-03 22:36:00,86.5,58.6,29.77,SSE,165,0.0,0.0,39,0.00,,,0.00,0,WeatherCatV1.11B39,2013-08-04 05:36:00,
2013-08-03 22:41:00,86.0,58.8,29.77,SSE,165,0.0,0.0,40,0.00,,,0.00,0,WeatherCatV1.11B39,2013-08-04 05:41:00,
2013-08-03 22:46:00,85.6,58.5,29.77,SSE,165,0.0,0.0,40,0.00,,,0.00,0,WeatherCatV1.11B39,2013-08-04 05:46:00,
2013-08-03 22:51:00,85.3,58.2,29.77,SSE,165,0.0,0.0,40,0.00,,,0.00,0,WeatherCatV1.11B39,2013-08-04 05:51:00,
2013-08-03 22:54:00,85.1,58.7,29.77,SSE,165,0.0,0.0,41,0.00,,,0.00,0,WeatherCatV1.11B39,2013-08-04 05:54:00,
2013-08-03 22:59:00,84.7,58.4,29.77,SSE,165,0.0,1.0,41,0.00,,,0.00,0,WeatherCatV1.11B39,2013-08-04 05:59:00,
2013-08-03 23:04:00,84.6,58.3,29.77,SSE,165,0.0,0.0,41,0.00,,,0.00,0,WeatherCatV1.11B39,2013-08-04 06:04:00,
2013-08-03 23:09:00,84.7,58.4,29.77,SSE,165,0.0,0.0,41,0.00,,,0.00,0,WeatherCatV1.11B39,2013-08-04 06:09:00,
2013-08-03 23:14:00,84.5,58.9,29.78,SSE,165,0.0,0.0,42,0.00,,,0.00,0,WeatherCatV1.11B39,2013-08-04 06:14:00,
2013-08-03 23:19:00,84.5,58.2,29.78,SSE,165,0.0,0.0,41,0.00,,,0.00,0,WeatherCatV1.11B39,2013-08-04 06:19:00,
2013-08-03 23:24:00,84.3,58.7,29.78,SSE,165,0.0,1.0,42,0.00,,,0.00,0,WeatherCatV1.11B39,2013-08-04 06:24:00,
2013-08-03 23:29:00,84.2,58.6,29.78,SSE,165,0.0,1.0,42,0.00,,,0.00,0,WeatherCatV1.11B39,2013-08-04 06:29:00,
2013-08-03 23:34:00,84.3,58.7,29.79,SSE,165,0.0,1.0,42,0.00,,,0.00,0,WeatherCatV1.11B39,2013-08-04 06:34:00,
2013-08-03 23:39:00,84.3,58.7,29.79,SSE,165,2.0,2.0,42,0.00,,,0.00,0,WeatherCatV1.11B39,2013-08-04 06:39:00,
2013-08-03 23:44:00,84.7,58.4,29.79,SSE,165,1.0,1.0,41,0.00,,,0.00,0,WeatherCatV1.11B39,2013-08-04 06:44:00,
2013-08-03 23:49:00,84.8,58.4,29.79,SSE,165,1.0,1.0,41,0.00,,,0.00,0,WeatherCatV1.11B39,2013-08-04 06:49:00,
2013-08-03 23:54:00,85.1,58.7,29.79,SSE,165,0.0,1.0,41,0.00,,,0.00,0,WeatherCatV1.11B39,2013-08-04 06:54:00,
2013-08-03 23:59:00,85.3,58.9,29.79,SSE,165,0.0,1.0,41,0.00,,,0.00,0,WeatherCatV1.11B39,2013-08-04 06:59:00,